Location: Greenwich
(51.4790°N, 0.0090°E)
Time: 12:55:11
(UTC+01:00)

Altair - Pass Details

Date: 20 June 2025
Orbit: 1502 x 1682 km, 47.2° (Epoch: 19 July)

Event Time Altitude Azimuth Distance (km) Brightness Sun altitude
Rises 23:40:34 0° 223° (SW) 4,628 9.7 -13.0°
Reaches altitude 10° 23:43:44 10° 217° (SW) 3,656 9.2 -13.1°
Maximum altitude 23:52:14 44° 149° (SSE) 2,008 7.7 -13.5°
Drops below altitude 10° 00:01:00 10° 82° (E) 3,764 9.5 -13.9°
Sets 00:04:17 0° 76° (ENE) 4,776 10.1 -14.0°
